Location: Unspecified
(49.2170°N, 0.0000°E)
Time: 08:17:28
(UTC+00:00)

Explorer 7 - Pass Details

Date: 21 January 2021
Orbit: 484 x 677 km, 50.3° (Epoch: 04 March)

Event Time Altitude Azimuth Distance (km) Brightness Sun altitude
Exits shadow 05:56:28 13° 215° (SW) 1,567 8.9 -17.3°
Maximum altitude 05:59:40 38° 149° (SSE) 811 8.0 -16.8°
Drops below altitude 10° 06:03:29 10° 81° (E) 1,815 10.6 -16.1°
Sets 06:05:54 0° 73° (ENE) 2,747 11.5 -15.8°
